Wind_Speed
10 10 12 13 14 13 11 11 10 10 9 8 8 7 8 8 7 7 7 6 7 5 4 6 6 6 6 7 6 7 8 8 8 8 8 9 9 10 11 12 12 13 12
10 12 13 16 16 13 11 10 10 9 9 8 7 6 7 6 7 8 5 5 6 5 3 4 4 4 5 5 5 6 7 7 8 8 8 8 9 10 10 10 13 12 12
9 12 13 15 15 13 12 11 10 10 9 8 8 7 6 6 7 6 4 2 4 4 4 4 3 2 1 3 5 5 6 6 6 7 8 8 8 8 10 9 10 11 11
9 11 12 14 14 14 13 12 11 10 9 8 8 7 6 6 6 5 4 2 2 3 4 4 3 2 1 3 6 6 5 5 5 6 6 7 7 7 8 9 9 9 9
8 12 13 13 14 14 13 12 12 11 9 8 8 7 6 5 5 3 2 2 2 2 3 3 2 0 2 4 6 6 6 5 5 4 14 6 5 5 6 8 8 8 8
11 15 14 15 13 13 12 12 11 10 9 8 8 7 6 5 3 2 2 2 2 1 2 2 1 0 2 5 7 6 6 5 3 5 6 4 5 6 5 6 7 7 7
13 14 14 15 13 11 10 10 10 9 8 7 7 7 6 4 3 1 1 1 1 1 2 2 1 1 3 4 8 8 7 5 3 6 2 3 4 4 5 5 6 6 6
13 14 15 15 13 11 9 9 9 9 8 7 6 6 6 5 2 1 0 1 1 1 1 3 1 1 1 4 7 7 7 6 4 1 5 3 4 3 3 4 5 6 6
13 15 16 16 13 11 11 10 9 8 8 7 6 4 3 3 3 1 1 2 2 1 1 2 2 3 2 2 6 8 7 6 8 7 2 4 3 3 3 3 4 5 5
12 11 15 16 15 13 10 9 9 8 7 7 6 5 4 0 0 0 2 4 3 3 2 2 2 1 4 4 6 7 8 7 6 6 6 5 4 4 3 3 3 4 4
9 12 12 15 15 14 13 11 10 10 9 8 5 5 4 4 3 3 4 5 5 5 5 4 4 4 1 2 4 6 8 8 7 7 11 6 5 5 5 5 4 3 3
5 8 11 12 15 16 15 13 12 11 11 11 8 8 9 9 7 7 6 8 8 8 7 6 5 5 6 2 7 3 8 10 11 10 10 8 9 7 7 7 6 4 4
7 7 8 11 13 15 16 15 17 13 12 12 12 10 10 11 9 11 12 12 12 12 11 8 8 8 8 9 7 4 4 9 12 12 8 10 12 10 9 10 9 8 6
5 5 6 9 13 15 18 16 16 15 15 14 13 12 13 15 14 13 15 20 18 17 12 13 10 8 10 10 9 10 7 8 7 12 11 15 13 13 14 14 14 12 13
5 7 7 5 9 13 14 18 19 21 25 15 17 16 15 15 18 17 20 23 30 21 22 20 18 10 8 9 10 12 12 12 9 10 13 16 18 16 17 16 18 16 15
6 5 3 2 8 10 14 15 17 19 19 15 16 18 16 18 16 16 21 26 33 26 25 20 15 11 8 8 9 10 13 13 15 12 16 16 18 21 20 22 21 19 12
10 6 2 4 5 12 14 15 16 16 16 16 11 23 15 16 17 16 17 17 19 28 30 30 8 13 12 15 17 18 16 15 17 18 11 18 22 21 23 24 21 23 9
15 10 8 8 9 13 16 14 14 14 14 14 15 15 13 13 15 15 13 11 13 25 22 21 16 20 17 18 18 22 22 20 18 19 20 21 20 19 21 25 24 22 20
16 13 13 15 12 9 16 16 12 10 10 10 10 11 12 15 17 17 18 15 16 16 16 16 16 20 19 23 24 22 24 22 21 21 21 20 20 18 22 21 25 27 24
16 14 15 17 19 18 13 17 11 11 9 9 10 13 17 20 21 22 24 23 21 20 19 19 23 19 26 23 23 26 27 23 26 23 23 21 20 22 22 24 24 26 24
14 16 18 21 23 23 17 21 12 9 10 12 11 16 18 22 23 25 25 27 25 24 23 24 21 27 24 25 24 21 22 25 27 23 22 24 22 21 23 24 25 18 18
13 15 17 22 24 25 13 16 13 10 12 12 14 16 20 20 22 25 23 25 27 26 28 27 28 28 27 25 23 21 18 16 21 23 23 23 23 22 20 21 18 17 14
12 13 17 13 5 3 9 12 9 8 9 12 14 18 22 21 22 21 20 19 22 24 26 28 30 31 29 28 27 24 15 15 14 23 21 22 23 20 18 18 16 17 15
11 11 14 4 8 15 14 11 5 8 9 12 13 16 18 20 21 20 18 16 14 18 19 23 26 30 30 28 28 26 24 23 25 24 23 17 21 20 17 17 17 13 11
8 7 8 2 9 10 7 5 4 6 9 11 12 15 17 20 19 16 14 13 12 14 17 20 23 22 26 28 29 25 22 22 24 24 21 20 19 21 18 17 14 12 14
6 2 5 5 8 2 4 2 2 6 10 12 12 15 17 19 21 12 11 11 13 14 15 15 18 21 23 25 26 24 23 20 22 22 22 20 19 22 23 23 12 9 21
Wind_Direction
156 156 160 155 149 145 140 136 126 119 116 107 104 114 112 110 110 114 115 128 125 117 111 102 91 94 105 111 105 94 92 91 85 90 89 98 100 95 94 98 109 111 107
166 160 163 156 152 149 142 135 124 120 110 101 98 103 106 103 106 108 114 143 136 131 119 126 101 86 110 115 117 102 91 89 89 90 99 101 99 93 96 97 106 114 113
166 156 162 153 150 149 145 140 133 127 114 99 90 95 96 93 93 93 100 137 138 138 140 139 108 91 55 142 136 126 104 90 91 90 96 106 100 94 98 97 105 115 117
163 156 156 153 149 147 145 144 140 131 121 111 98 94 98 92 89 88 90 120 108 134 145 165 139 124 101 162 157 143 122 105 92 82 102 88 98 100 103 106 110 119 121
173 161 156 156 152 147 146 147 141 135 128 116 108 101 100 104 109 107 93 69 66 108 144 185 167 181 141 161 165 157 134 120 98 87 105 229 104 105 112 113 115 121 121
170 170 163 162 156 150 148 144 136 129 120 115 115 117 111 113 121 128 117 109 86 141 161 203 247 273 166 165 170 165 140 127 116 99 78 123 123 107 106 116 122 123 122
156 170 168 167 162 155 150 144 136 125 119 117 121 125 126 121 122 142 146 122 140 178 181 204 262 297 185 180 174 171 151 148 166 97 140 126 109 106 108 116 127 133 134
160 187 176 176 173 164 156 150 144 136 133 122 111 104 111 124 123 135 297 288 175 204 243 209 108 83 208 178 188 180 172 156 121 43 148 203 128 135 130 127 128 134 140
180 201 183 185 188 180 169 165 161 157 150 145 134 120 94 88 109 131 235 230 281 246 226 241 19 29 39 236 190 196 192 182 168 185 188 163 165 171 172 158 145 139 142
197 208 194 192 190 191 189 183 180 180 173 168 163 159 146 166 319 117 262 255 238 254 248 231 204 158 57 11 249 208 206 200 200 178 143 254 194 200 193 201 177 156 153
212 203 213 205 204 199 202 204 199 205 198 185 193 212 211 215 245 239 238 235 244 239 243 234 217 225 223 305 337 240 211 211 202 172 208 201 217 219 207 212 208 191 176
209 196 231 214 216 212 215 216 217 215 214 206 223 223 228 227 219 243 259 252 244 238 234 234 230 224 220 214 277 210 230 219 217 216 237 228 229 226 227 222 212 196 230
184 214 228 230 231 224 226 230 224 225 232 234 234 238 245 256 265 262 260 258 253 240 225 233 217 214 221 236 234 216 261 242 236 236 272 233 234 234 232 231 221 209 233
207 225 236 232 232 226 233 237 242 239 236 251 250 240 269 265 269 278 285 273 253 244 246 251 220 209 209 227 241 235 254 266 254 251 235 248 236 239 237 239 234 235 237
195 189 222 260 233 230 235 237 241 246 223 231 254 260 266 258 265 284 268 278 261 250 242 223 210 210 211 220 239 246 234 238 250 261 252 253 248 244 239 242 246 246 241
226 212 175 282 293 248 237 241 242 252 280 271 272 271 266 272 271 283 277 284 245 240 241 225 228 233 212 238 257 265 259 248 241 244 256 265 259 250 245 245 246 246 270
254 244 149 19 10 290 261 240 242 245 253 251 263 270 276 269 273 276 276 291 241 245 248 251 237 230 234 263 262 271 267 258 249 241 236 264 266 254 253 257 258 255 266
270 274 219 320 347 324 285 256 246 241 243 248 247 257 259 262 268 273 277 290 248 240 259 244 239 249 250 254 260 275 266 262 256 252 252 255 261 269 262 258 260 259 245
285 271 264 277 291 322 267 258 237 232 231 234 252 278 289 286 284 281 283 279 270 260 256 253 250 260 265 255 258 255 270 267 262 255 252 255 256 262 273 271 260 252 249
289 268 270 281 289 269 239 249 234 239 243 265 278 289 292 297 295 291 287 282 275 264 267 259 255 259 254 258 257 253 257 270 264 255 254 252 249 255 264 276 271 287 242
281 267 270 276 270 260 257 228 223 242 274 265 288 286 298 296 294 289 281 280 273 265 261 242 246 256 255 256 264 268 262 266 268 253 251 251 254 255 255 268 270 275 265
287 280 300 309 280 281 241 217 216 234 268 291 297 294 301 301 300 291 285 279 271 263 256 251 256 257 254 255 256 263 261 269 287 271 248 255 256 259 264 264 256 272 262
290 304 321 336 336 240 250 207 213 251 294 306 313 314 314 307 308 308 294 280 272 266 259 249 250 251 253 250 249 259 250 253 243 257 260 255 256 257 262 251 249 255 260
296 323 336 41 66 87 147 171 222 285 304 316 304 314 318 324 315 306 306 290 277 267 265 256 248 251 246 246 250 262 249 232 235 243 255 267 248 252 253 253 248 248 256
292 320 346 124 111 103 120 166 230 291 317 313 312 313 325 328 327 316 321 313 298 281 274 262 251 249 246 248 249 250 242 252 250 241 247 258 252 251 252 259 272 265 269
292 293 356 40 194 204 137 153 310 328 324 322 320 326 334 340 340 328 326 318 303 285 268 257 252 247 242 244 242 248 234 252 257 242 247 254 253 251 253 255 257 258 262
Height
3184 3183 3185 3186 3187 3190 3191 3193 3193 3194 3195 3196 3197 3197 3198 3199 3200 3200 3199 3202 3202 3204 3205 3205 3206 3206 3206 3207 3208 3208 3208 3208 3208 3208 3208 3208 3209 3208 3208 3208 3208 3209 3210
3183 3184 3186 3187 3188 3190 3192 3194 3195 3196 3197 3198 3198 3199 3200 3201 3201 3200 3202 3203 3203 3204 3206 3207 3207 3207 3207 3207 3209 3209 3209 3210 3210 3210 3210 3211 3211 3211 3211 3211 3210 3211 3212
3183 3186 3188 3189 3190 3192 3194 3195 3196 3198 3199 3199 3200 3201 3201 3202 3202 3202 3204 3205 3204 3205 3206 3207 3208 3208 3208 3209 3210 3211 3210 3211 3211 3211 3211 3212 3213 3213 3213 3213 3213 3214 3214
3185 3187 3189 3191 3193 3194 3195 3196 3198 3199 3199 3200 3201 3201 3202 3203 3203 3204 3204 3206 3205 3206 3207 3207 3208 3209 3210 3210 3211 3212 3212 3212 3212 3212 3213 3214 3215 3215 3215 3215 3215 3216 3216
3187 3189 3191 3193 3194 3195 3196 3197 3198 3199 3200 3201 3201 3202 3203 3203 3204 3205 3206 3206 3206 3207 3207 3208 3208 3209 3210 3210 3211 3212 3213 3214 3214 3214 3214 3218 3217 3217 3217 3216 3217 3217 3218
3189 3189 3192 3193 3195 3196 3197 3198 3199 3200 3201 3202 3202 3203 3204 3204 3205 3205 3206 3206 3206 3207 3208 3208 3209 3210 3210 3210 3212 3213 3214 3215 3215 3215 3216 3217 3218 3219 3219 3218 3218 3218 3219
3192 3190 3192 3194 3195 3197 3198 3198 3200 3200 3201 3202 3203 3204 3204 3205 3204 3206 3206 3207 3207 3208 3207 3209 3209 3209 3211 3212 3212 3214 3215 3215 3216 3215 3218 3219 3219 3220 3220 3220 3219 3220 3220
3195 3191 3193 3195 3196 3197 3199 3200 3201 3202 3203 3204 3204 3205 3205 3205 3206 3206 3207 3207 3208 3208 3208 3209 3210 3210 3211 3212 3213 3215 3215 3216 3218 3220 3220 3219 3220 3221 3221 3221 3221 3221 3221
3194 3190 3192 3194 3196 3198 3198 3200 3201 3203 3203 3204 3205 3206 3206 3206 3207 3207 3207 3207 3207 3208 3209 3210 3210 3211 3212 3213 3213 3215 3215 3216 3217 3218 3220 3220 3221 3222 3222 3222 3221 3221 3222
3191 3191 3193 3194 3195 3197 3200 3201 3202 3203 3203 3204 3205 3206 3207 3207 3207 3207 3207 3207 3207 3207 3208 3209 3210 3211 3212 3212 3213 3214 3215 3216 3216 3217 3220 3220 3222 3222 3222 3223 3223 3222 3222
3191 3193 3193 3195 3196 3197 3199 3201 3202 3204 3203 3203 3204 3205 3206 3207 3207 3207 3207 3206 3206 3207 3207 3208 3210 3210 3210 3211 3213 3213 3215 3215 3216 3217 3211 3219 3221 3222 3222 3222 3223 3223 3223
3190 3192 3193 3194 3196 3197 3198 3200 3201 3202 3202 3203 3203 3203 3205 3205 3205 3205 3205 3205 3205 3205 3204 3204 3207 3208 3209 3210 3211 3212 3213 3214 3216 3217 3218 3219 3220 3221 3222 3222 3223 3222 3223
3189 3191 3192 3192 3194 3196 3198 3198 3197 3200 3200 3200 3203 3203 3205 3205 3206 3206 3203 3203 3202 3200 3200 3199 3201 3204 3207 3208 3210 3211 3213 3213 3215 3215 3218 3218 3219 3220 3221 3222 3222 3221 3223
3189 3189 3190 3192 3192 3194 3194 3196 3197 3197 3196 3197 3199 3201 3202 3203 3205 3204 3203 3201 3198 3200 3203 3202 3201 3199 3202 3206 3208 3210 3211 3213 3213 3214 3215 3217 3217 3218 3219 3219 3220 3220 3222
3190 3190 3190 3191 3192 3192 3193 3194 3194 3188 3168 3188 3196 3200 3201 3200 3201 3200 3199 3198 3195 3200 3199 3183 3189 3196 3197 3202 3206 3208 3210 3211 3211 3213 3214 3214 3215 3216 3216 3217 3217 3219 3220
3190 3189 3190 3190 3191 3191 3191 3192 3192 3188 3178 3189 3194 3196 3198 3198 3198 3197 3196 3192 3186 3195 3196 3191 3195 3194 3193 3198 3203 3205 3206 3208 3209 3209 3211 3210 3212 3213 3213 3214 3214 3215 3218
3188 3189 3189 3189 3189 3191 3191 3190 3191 3191 3191 3193 3195 3193 3195 3195 3194 3194 3194 3189 3183 3188 3194 3165 3168 3192 3192 3195 3199 3202 3204 3205 3206 3208 3209 3208 3207 3208 3210 3209 3211 3211 3213
3188 3189 3189 3188 3188 3191 3191 3189 3189 3189 3190 3191 3192 3192 3192 3192 3192 3191 3191 3189 3185 3186 3186 3191 3190 3191 3189 3191 3195 3197 3200 3202 3203 3203 3205 3205 3205 3204 3206 3205 3206 3208 3209
3187 3189 3188 3188 3187 3188 3189 3190 3188 3189 3189 3190 3191 3190 3190 3190 3189 3188 3187 3187 3185 3184 3182 3184 3184 3184 3187 3189 3192 3194 3195 3197 3199 3199 3200 3201 3202 3201 3200 3202 3204 3206 3207
3184 3186 3186 3185 3184 3184 3183 3187 3187 3187 3188 3188 3188 3188 3186 3185 3184 3183 3181 3180 3181 3180 3180 3180 3182 3183 3185 3187 3187 3189 3191 3193 3192 3194 3195 3197 3198 3198 3198 3197 3199 3192 3195
3184 3184 3183 3182 3179 3175 3176 3181 3184 3185 3186 3184 3186 3182 3184 3182 3180 3177 3176 3173 3174 3174 3176 3178 3178 3179 3182 3183 3183 3185 3186 3187 3187 3189 3191 3192 3193 3194 3195 3196 3194 3198 3198
3181 3182 3180 3178 3174 3171 3173 3178 3181 3183 3184 3183 3183 3183 3180 3177 3175 3171 3170 3168 3167 3166 3169 3170 3172 3174 3176 3178 3180 3181 3183 3186 3184 3183 3187 3188 3189 3191 3191 3192 3193 3194 3194
3180 3179 3178 3175 3170 3168 3170 3177 3179 3183 3182 3182 3180 3179 3176 3173 3169 3166 3164 3162 3160 3160 3160 3163 3165 3167 3169 3172 3174 3177 3180 3182 3186 3182 3182 3184 3185 3188 3188 3189 3189 3190 3191
3179 3177 3175 3174 3172 3170 3171 3176 3180 3181 3181 3180 3179 3176 3173 3169 3165 3162 3158 3156 3156 3155 3156 3157 3158 3160 3163 3165 3167 3170 3173 3175 3177 3178 3179 3180 3182 3185 3185 3185 3183 3181 3187
3178 3178 3177 3175 3175 3174 3176 3179 3180 3180 3179 3178 3176 3174 3170 3165 3161 3158 3154 3152 3151 3151 3151 3151 3152 3154 3156 3160 3162 3164 3167 3170 3171 3174 3177 3178 3180 3182 3183 3182 3182 3184 3184
3178 3177 3177 3175 3176 3177 3178 3179 3180 3180 3179 3177 3176 3173 3168 3164 3159 3155 3152 3150 3149 3147 3146 3147 3147 3148 3151 3154 3156 3157 3162 3166 3167 3170 3173 3175 3177 3178 3179 3171 3177 3177 3180